#timestamp,LO_Frequency,Hit 
1501450195.5,286046917.4,P
1501450215.3,286046919.2,P
1501450235.2,286046916.7,P
1501450255.0,286046917.8,P
1501450255.9,286046917.8,P
1501450275.8,286046999.0,P
1501450295.6,286046999.4,N
1501450315.4,286046999.1,N
1501450335.3,286046997.3,N
1501450355.1,286046997.0,N
1501450375.9,286046998.4,N
1501450395.7,286046999.8,N
1501450415.5,286047000.2,N
1501450435.4,286046998.5,N
1501450455.2,286046998.4,N
1501450475.0,286046996.9,N
1501450475.9,286046996.9,N
1501450495.8,286046998.7,N
1501450515.6,286046997.1,N
1501450535.5,286046997.2,N
1501450555.3,286046999.6,N
1501450575.1,286046997.8,N
1501450595.9,286046999.3,N
1501450615.7,286046998.6,N
1501450635.6,286047004.4,N
1501450655.4,286047002.3,N
1501450675.2,286047000.1,N
1501450695.1,286047001.1,N
1501450696.0,286047001.1,N
1501450715.8,286047001.2,N
1501450735.6,286046999.3,N
1501450755.5,286046998.4,N
1501450775.3,286046998.3,N
1501450795.2,286046998.6,N
1501450815.9,286047000.8,N
1501450835.7,286046998.7,N
1501450855.6,286046998.4,N
1501450875.4,286046998.4,N
1501450895.3,286046999.7,N
1501450915.1,286047000.3,N
1501450916.0,286047000.3,N
1501450935.8,286047000.0,N
1501450955.7,286047001.0,N
1501450975.5,286047000.8,N
1501450995.3,286046999.4,N
1501451015.2,286046999.5,N
1501451035.0,286047000.9,N
1501451035.9,286047000.9,N
1501451055.8,286047000.3,N
1501451075.6,286046998.1,N
1501451095.4,286047001.1,N
1501451115.3,286046999.0,N
1501451135.1,286046999.0,N
1501451155.9,286047002.8,N
1501451175.7,286047000.1,N
1501451195.5,286047003.6,N
1501451215.4,286047005.9,P
1501451235.2,286047003.1,N
1501451255.0,286047001.9,N
1501451255.9,286047001.9,N
1501451275.8,286047003.5,N
1501451295.6,286047002.2,N
1501451315.5,286047002.5,N
1501451335.3,286047002.0,N
1501451355.1,286047002.1,N
1501451375.9,286047002.8,N
1501451395.7,286047001.9,N
1501451415.6,286047002.7,N
1501451435.4,286047000.2,N
1501451455.2,286047002.2,N
1501451475.1,286047001.9,N
1501451476.0,286047001.9,N
1501451495.8,286047004.3,P
1501451515.7,286046998.1,N
1501451535.5,286047000.7,N
1501451555.3,286046999.3,N
1501451575.2,286046998.9,N
1501451595.0,286047002.1,N
1501451595.9,286047002.1,N
1501451615.7,286047001.7,N
1501451635.6,286047001.3,N
1501451655.4,286047003.6,N
1501451675.3,286047003.4,N
1501451695.1,286047004.3,N
1501451696.0,286047004.3,N
1501451715.8,286047002.5,N
1501451735.7,286047003.0,N
1501451755.5,286047006.0,P
1501451775.4,286047004.0,N
1501451795.2,286047003.9,N
1501451815.0,286047003.6,N
1501451815.9,286047003.6,N
1501451835.8,286047005.7,P
1501451855.6,286046998.6,N
1501451875.4,286046998.5,N
1501451895.3,286046996.5,N
1501451915.1,286046999.6,N
1501451935.9,286046997.5,N
1501451955.7,286046995.2,N
1501451975.5,286046997.7,N
1501451995.4,286046997.4,N
